www.pogodaiklimat.ru

Погода и климат >> Архив погоды >> Россия >> Пермский край >> Чайковский


ПОГОДА в Чайковском

  • Прогноз погоды в Чайковском
  • Монитор погоды в Чайковском

АРХИВ ПОГОДЫ в Чайковском

Время (UTC), дата Ветер
(напр.,м/с)
 
Видим.   Явления Облачность Т
(С)
Тd
(С)
f
(%)
Тe
(С)
Тes
(С)
Комфортность P
(гПа)
Po
(гПа)
Тmin
(С)
Tmax
(С)
R
(мм)
R24
(мм)
S
(см)
00 15.09 ЮЗ 1 10 км слаб. ливневой дождь 10/10 600 м
[Cb calv]
+14.8 +9.2 69 +15 +15 1009.2 997.6
03 15.09 З 2 20 км слаб. дождь 10/10 600 м
[Sc]
+13.5 +10.1 80 +13 +13 1009.3 997.7 +13.1
06 15.09 ЮЗ 1 10 км слаб. дождь 10/10 300 м
[Frnb]
+13.1 +10.8 86 +13 +13 1009.2 997.5 +12.8
09 15.09 З 2 50 км в посл. час ливневой дождь 10/10 300 м
[Frnb]
+13.0 +10.0 82 +12 +12 1009.6 997.9
12 15.09 З 2 50 км {ливн. осадки, дождь} 8/6 600 м
[Sc Ac trans]
+14.3 +7.1 62 +14 +15 1009.4 997.8
15 15.09 Ю 2 50 км 8/4 600 м
[Sc Ac trans Ci fib]
+11.6 +7.5 76 +11 +11 1008.7 997.0 +14.6 2
18 15.09 ЮЗ 2 50 км 6/6 600 м
[Sc]
+10.9 +7.3 78 +10 +10 1008.5 996.8
21 15.09 Ю 1 50 км 3/3 1000 м
[Sc]
+9.2 +6.0 80 +9 +9 1008.3 996.5
00 16.09 ЮВ 2 50 км ясно +6.2 +4.3 88 +4 +4 1007.9 995.9
03 16.09 Ю 1 50 км 8/8 600 м
[Sc]
+6.5 +4.5 87 +5 +6 1006.9 995.0 +5.2
06 16.09 Ю 2 50 км {ливн. осадки} 9/0
[Ci]
+10.7 +6.0 73 +9 +13 1005.4 993.7
09 16.09 ЮЗ 3 50 км слаб. ливневой дождь 10/9 600 м
[Cb calv Ac und]
+12.3 +4.7 60 +11 +11 1003.9 992.3
12 16.09 Ю 4
{10}
50 км {ливн. осадки} 10/10 600 м
[Cb calv]
+11.4 +4.1 61 +9 +9 1001.7 990.1
15 16.09 Ю 3
{10}
20 км слаб. дождь 10/10 300 м
[Frnb]
+8.7 +7.1 90 +6 +6 999.9 988.1 +13.2 2
18 16.09 Ю 3 10 км слаб. дождь 10/8 300 м
[Frnb As op]
+9.2 +7.3 88 +7 +7 997.9 986.2
21 16.09 ЮЗ 3 10 км слаб. дождь 10/10 300 м
[Frnb]
+9.6 +7.9 89 +7 +7 996.6 984.9
00 17.09 ЮЗ 3 20 км {дождь} 9/8 300 м
[Frnb Ac As]
+9.4 +7.6 89 +7 +7 996.9 985.2
03 17.09 ЮЗ 3 50 км 10/9 300 м
[Frnb Ac und]
+9.5 +7.3 86 +7 +7 997.7 986.0 +8.7 3
06 17.09 ЮЗ 3 50 км 10/9 300 м
[Sc Ac und]
+11.2 +7.3 77 +9 +10 998.5 986.9
09 17.09 ЮЗ 4 50 км 9/6 600 м
[Cb calv Ci]
+14.9 +7.9 63 +14 +15 998.3 986.8
12 17.09 З 3 10 км слаб. ливневой дождь 10/8 600 м
[Cb calv Ac und]
+13.5 +8.2 70 +12 +13 997.6 986.0
15 17.09 Ю 3 50 км {ливн. осадки} 8/3 600 м
[Cb calv Ac trans]
+12.7 +7.6 71 +11 +11 997.3 985.8 +15.2 0.5
18 17.09 Ю 3 50 км {ливн. осадки} 9/8 600 м
[Sc Ac As]
+11.8 +6.7 71 +10 +10 997.5 985.9
21 17.09 ЮЗ 1 20 км {дождь} 9/4 600 м
[Sc Ac As]
+9.8 +6.5 80 +9 +9 997.8 986.1
00 18.09 Ю 2 20 км {дождь} 9/3 600 м
[Sc Ac As]
+8.7 +6.3 85 +7 +7 997.7 986.0
03 18.09 Ю 1 50 км 3/3 600 м
[Cb calv]
+8.6 +6.0 84 +8 +8 998.6 986.8 +8.4
06 18.09 ЮЗ 3 50 км 6/6 600 м
[Sc]
+12.1 +6.1 67 +11 +12 999.2 987.6
09 18.09 ЮЗ 3 50 км 10/10 600 м
[Cb calv]
+13.6 +4.7 55 +13 +13 999.8 988.2
12 18.09 ЮЗ 2 50 км 8/3 600 м
[Cb calv Ac trans Ci fib]
+13.8 +5.3 56 +13 +14 1000.0 988.5
15 18.09 Ю 1 50 км 10/10 600 м
[Sc diur, vesp]
+10.6 +6.3 75 +10 +10 1000.5 988.9 +14.6
18 18.09 Ю 1 50 км 9/9 600 м
[Sc]
+9.2 +4.3 71 +9 +9 1000.6 988.9
21 18.09 ЮВ 1 50 км 9/8 600 м
[Sc Ac trans]
+6.6 +4.5 86 +6 +6 999.9 988.0
00 19.09 штиль 0 50 км 10/6 600 м
[Sc Ac und]
+6.8 +4.9 88 +6 +6 997.3 985.5
03 19.09 ЮВ 1 50 км {дождь} 10/10 600 м
[Sc]
+7.0 +5.1 88 +6 +6 993.1 981.4 +6.2
06 19.09 СВ 2 20 км слаб. дождь 10/10 300 м
[Frnb]
+8.7 +6.7 87 +7 +7 989.6 978.0
09 19.09 СЗ 4 50 км слаб. дождь 10/10 300 м
[Frnb]
+9.8 +6.8 82 +7 +7 990.2 978.6
12 19.09 СЗ 4
{12}
50 км {дождь} 9/6 600 м
[Sc Ac trans Ci fib]
+12.1 +5.2 63 +10 +11 995.1 983.5
15 19.09 З 3
{10}
50 км в посл. час дождь 9/8 600 м
[Sc Ac trans]
+9.6 +5.7 77 +7 +7 1000.0 988.3 +12.2 1
18 19.09 З 3 50 км {дождь} 6/3 600 м
[Sc Ac trans Cc]
+7.6 +4.7 82 +5 +5 1003.2 991.4
21 19.09 З 2 50 км 10/6 600 м
[Sc Ac und]
+7.3 +5.1 86 +5 +5 1005.0 993.1
00 20.09 З 1 50 км 10/6 600 м
[Sc Ac und]
+7.0 +5.1 88 +6 +6 1007.2 995.3
03 20.09 СЗ 2 50 км 8/0 2000 м
[Ac trans]
+6.4 +3.8 83 +4 +4 1009.2 997.2 +6.4
06 20.09 З 1 50 км 8/0 2000 м
[Ac As]
+8.8 +2.3 64 +8 +11 1011.2 999.3 +6.4
09 20.09 З 2 50 км 8/8 1000 м
[Sc]
+10.8 +0.1 48 +10 +11 1012.0 1000.2
12 20.09 ЮЗ 1 50 км 10/9 1000 м
[Sc Ac und]
+9.2 +0.5 54 +9 +9 1012.7 1000.8
15 20.09 штиль 0 50 км 8/8 1000 м
[Sc Ac As]
+6.0 +2.6 79 +5 +5 1013.5 1001.4 +11.0
18 20.09 Ю 1 50 км 9/8 1000 м
[Sc Ac As]
+6.5 +2.4 75 +6 +6 1013.8 1001.8
21 20.09 ЮВ 2 50 км 8/6 1000 м
[Sc Ac As]
+5.1 +2.9 86 +2 +2 1013.5 1001.5
00 21.09 ЮВ 2 50 км 3/3 1000 м
[Sc]
+4.0 +2.1 87 +1 +1 1012.0 999.9
03 21.09 Ю 3 50 км 9/8 300 м
[Frnb Ac As]
+5.1 +3.4 89 +2 +2 1010.5 998.4 +3.9
06 21.09 Ю 3 10 км слаб. ливневой дождь 10/10 600 м
[Cb cap]
+6.3 +4.8 90 +3 +3 1009.9 997.9
09 21.09 Ю 3 50 км {ливн. осадки} 9/8 600 м
[Sc Ac und]
+8.7 +6.1 84 +6 +7 1008.0 996.2
12 21.09 З 4 50 км {ливн. осадки} 8/6 600 м
[Cu Sc Ac trans]
+9.3 +3.3 66 +7 +7 1006.9 995.1
15 21.09 СЗ 3 50 км 4/4 600 м
[Sc]
+5.2 +0.4 71 +2 +2 1007.7 995.7 +10.7 3
18 21.09 штиль 0 50 км ясно +1.6 +0.1 90 0 0 1006.6 994.5
21 21.09 штиль 0 50 км ясно +0.1 -0.9 93 -1 -1 1005.2 993.1

 

Местоположение метеостанции Чайковский (Пермский край, Россия): широта 56.75 долгота 54.08 высота над уровнем моря 98 м.

В архиве по умолчанию представлена погода в Чайковском за последнюю неделю. Архивные данные за месяц целиком и за предыдущие месяцы, начиная с января 2011 года, Вы можете получить, выбрав интересующий диапазон дат из раскрывающегося списка и нажав кнопку "Ввод!".


*Определитесь, кто Вы:
робот инопланетянин человек

Внимание! Время в таблицах - всемирное. Для получения местного времени необходимо прибавить поправку, которая равна 5 ч.

Смотрите также архив погоды в соседних городах и на ближайших метеорологических станциях:

Погода в Воткинске (Удмуртия, Россия) (35 км)
Погода в Сарапуле (Удмуртия, Россия) (38 км)
Погода в Ижевске (Удмуртия, Россия) (39 км)
Погода в Ножовке (Пермский край, Россия) (55 км)
Погода в Янауле (Башкирия, Россия) (73 км)
Погода в Дебесах (Удмуртия, Россия) (99 км)
Погода в Осе (Пермский край, Россия) (100 км)
Погода в Игре (Удмуртия, Россия) (107 км)
Погода в Можге (Удмуртия, Россия) (121 км)
Погода в Чернушке (Пермский край, Россия) (128 км)

Пояснения к столбцам:

Ветер - указаны скорость ветра в м/с - средняя за 10 мин, порывы в срок и между сроками (в фигурных скобках) и направление, откуда дует ветер: С - северный, СВ - северо-восточный, В - восточный, ЮВ - юго-восточный, Ю - южный, ЮЗ - юго-западный, З - западный, СЗ - северо-западный.
Видимость - горизонтальная дальность видимости в метрах или километрах. При видимости от 1 до 10 км при отсутствии осадков обычно наблюдается дымка, при ухудшении видимости до 1 км и менее - туман. В сухую погоду видимость может ухудшаться дымом, пылью или мглою.
Явления - указаны атмосферные явления, наблюдавшиеся в срок или в последний час перед сроком; фигурными скобками обозначены явления, наблюдавшиеся между сроками (за 1-3 часа до срока); квадратными скобками обозначены град или гололедные отложения с указанием их диаметра в мм.
Облачность - указаны через наклонную черту общая и нижняя облачность в баллах и высота нижней границы облаков в метрах; квадратными скобками обозначены формы облаков: Ci - перистые, Cs - перисто-слоистые, Cc - перисто-кучевые, Ac - высококучевые, As - высокослоистые, Sc - слоисто-кучевые, Ns - слоисто-дождевые, Cu - кучевые, Cb - кучево-дождевые. Подробнее классификацию облаков см. в Атласе облаков (PDF).
T - Температура воздуха - температура, измеренная на высоте 2 м над землей.
Td - Температура точки росы - температура, при понижении до которой содержащийся в воздухе водяной пар достигнет насыщения.
f - Относительная влажность воздуха - влажноcть воздуха, измеренная на высоте 2 м над землей.
Te - Эффективная температура - температура, которую ощущает одетый по сезону человек в тени. Характеристика душности погоды. При расчете учитывается влияние влажности воздуха и скорости ветра на теплоощущения человека.
Tes - Эффективная температура на солнце - температура, которую ощущает человек, с поправкой на солнечный нагрев. Характеристика знойности погоды. Зависит от высоты солнца над горизонтом, облачности и скорости ветра. Ночью, в пасмурную погоду, а также при ветре 12 м/с и более поправка равна нулю.
P - Атмосферное давление - приведенное к уровню моря атмосферное давление.
Po - Атмосферное давление - измеренное на уровне метеостанции атмосферное давление.
Tmin - Минимальная температура - минимум температуры воздуха на высоте 2 м над землей.
Tmax - Максимальная температура - максимум температуры воздуха на высоте 2 м над землей.
R - Количество осадков - Количество выпавших осадков за период времени, мм. При наведении курсора мыши на число - период времени, за который выпало указанное количество осадков.
R24 - Количество осадков - Количество выпавших осадков за 24 часа, мм.
S - Снежный покров - Высота снежного покрова, см. При наведении курсора мыши на число - состояние снежного покрова и степень покрытия местности в баллах.